Location: Lafig�re
(44.4503°N, 4.0357°E)
Time: 21:33:37
(UTC+00:00)

ISS - Visible Passes

Search period start: 28 November 2021 00:00
Search period end: 08 December 2021 00:00
Orbit: 417 x 423 km, 51.6° (Epoch: 28 November)

Date Brightness Start Highest point End Pass type
(mag) Time Alt. Az. Time Alt. Az. Time Alt. Az.
28 Nov -2.3 16:51:28 10° WNW 16:54:26 27° NNW 16:57:13 11° NE visible
28 Nov -1.2 18:29:03 10° NW 18:30:12 17° NW 18:30:12 17° NW visible
29 Nov -2.2 17:41:48 10° NW 17:44:37 24° N 17:44:54 23° NNE visible
30 Nov -2.2 16:54:26 10° WNW 16:57:15 23° N 16:59:38 12° NE visible
30 Nov -1.3 18:31:32 10° NW 18:32:37 18° NW 18:32:37 18° NW visible
01 Dec -2.6 17:44:21 10° NW 17:47:22 30° NNE 17:47:22 30° NNE visible
02 Dec -2.4 16:57:06 10° NW 17:00:02 26° N 17:02:11 14° ENE visible
02 Dec -1.4 18:33:52 10° WNW 18:35:10 21° NW 18:35:10 21° NW visible
03 Dec -3.5 17:46:39 10° NW 17:49:59 49° NNE 17:50:04 49° NNE visible
04 Dec -3.0 16:59:28 10° NW 17:02:39 37° NNE 17:05:05 15° E visible
04 Dec -1.6 18:36:17 10° WNW 18:38:05 26° W 18:38:05 26° W visible
05 Dec -3.6 17:48:57 10° WNW 17:52:21 73° SSW 17:53:16 44° SE visible
06 Dec -3.8 17:01:40 10° WNW 17:05:04 73° NNE 17:08:28 10° ESE visible
06 Dec -1.1 18:39:15 10° W 18:41:33 17° SW 18:41:43 17° SW visible
07 Dec -1.7 17:51:30 10° WNW 17:54:26 27° SW 17:57:20 10° SSE visible
